This is the latest recevied weather packets stored in our database for station/object N4TLC. If no packets are shown the sender has not sent any weather packets the latest 10 day(s).
| Time | Temp. | Humidity | Pressure | Rain* | Wind** | Luminosity | Snow |
|---|---|---|---|---|---|---|---|
| 1777904759 | 17.78° C | 45% | 1018.8 hPa | 0 mm | - | 62 W/m² | - |
| 1777904456 | 17.78° C | 48% | 1018.9 hPa | 0 mm | - | 62 W/m² | - |
| 1777904152 | 17.22° C | 51% | 1018.7 hPa | 0 mm | - | 61 W/m² | - |
| 1777903849 | 17.22° C | 51% | 1018.9 hPa | 0 mm | - | 60 W/m² | - |
| 1777903546 | 16.67° C | 53% | 1018.9 hPa | 0 mm | - | 60 W/m² | - |
| 1777903242 | 16.11° C | 53% | 1018.8 hPa | 0 mm | - | 57 W/m² | - |
| 1777902938 | 16.11° C | 53% | 1019 hPa | 0 mm | - | 57 W/m² | - |
| 1777902636 | 15.56° C | 55% | 1018.8 hPa | 0 mm | - | 56 W/m² | - |
| 1777902333 | 15° C | 55% | 1019.1 hPa | 0 mm | - | 55 W/m² | - |
| 1777902030 | 15.56° C | 57% | 1018.9 hPa | 0 mm | - | 57 W/m² | - |
| 1777901728 | 15° C | 58% | 1019.2 hPa | 0 mm | - | 56 W/m² | - |
| 1777901425 | 15° C | 58% | 1019.1 hPa | 0 mm | - | 56 W/m² | - |
| 1777901123 | 15° C | 58% | 1018.9 hPa | 0 mm | - | 55 W/m² | - |
| 1777900820 | 14.44° C | 60% | 1019 hPa | 0 mm | - | 55 W/m² | - |
| 1777900517 | 14.44° C | 61% | 1019 hPa | 0 mm | - | 54 W/m² | - |
| 1777900214 | 14.44° C | 60% | 1019 hPa | 0 mm | - | 54 W/m² | - |
| 1777899910 | 13.89° C | 61% | 1018.8 hPa | 0 mm | - | 55 W/m² | - |
| 1777899608 | 13.89° C | 63% | 1018.8 hPa | 0 mm | - | 56 W/m² | - |
| 1777899305 | 13.33° C | 65% | 1019.1 hPa | 0 mm | - | 88 W/m² | - |
| 1777899003 | 12.78° C | 67% | 1018.9 hPa | 0 mm | - | 62 W/m² | - |
| 1777898699 | 12.78° C | 67% | 1018.8 hPa | 0 mm | - | 55 W/m² | - |
| 1777898397 | 12.22° C | 68% | 1018.8 hPa | 0 mm | - | 50 W/m² | - |
| 1777898094 | 12.22° C | 70% | 1018.7 hPa | 0 mm | - | 47 W/m² | - |
| 1777897790 | 11.67° C | 73% | 1018.7 hPa | 0 mm | - | 46 W/m² | - |
| 1777897487 | 11.11° C | 74% | 1018.7 hPa | 0 mm | - | 44 W/m² | - |
* Rain latest hour (hover to see other rain measurements)
** Current wind speed in m/s (hover to see current wind gust speed)